• In Italy
  • List of Countries
  • For 7 days
  • Water Temperature
  • Satellite Maps
  • Weather Map
  • Weather Widgets
  • user-avatar
    Login

    Hourly Weather Lucknow

    Today, 19 November, Sunday

    Time Temperature Precipitation Wind Pressure Humidity
    00:00 +24°C° 0 mm 2 mps 748 mmHg 38%
    01:00 +24°C° 0 mm 2 mps 747 mmHg 39%
    02:00 +24°C° 0 mm 2 mps 747 mmHg 39%
    03:00 +24°C° 0 mm 2 mps 747 mmHg 39%
    04:00 +24°C° 0 mm 2 mps 747 mmHg 38%
    05:00 +24°C° 0 mm 2 mps 747 mmHg 41%
    06:00 +24°C° 0 mm 1 mps 748 mmHg 40%
    07:00 +25°C° 0 mm 1 mps 748 mmHg 40%
    08:00 +25°C° 0 mm 1 mps 749 mmHg 39%
    09:00 +27°C° 0 mm 2 mps 749 mmHg 36%
    10:00 +29°C° 0 mm 2 mps 749 mmHg 32%
    11:00 +31°C° 0 mm 2 mps 749 mmHg 29%
    12:00 +31°C° 0 mm 2 mps 749 mmHg 29%
    13:00 +31°C° 0 mm 3 mps 748 mmHg 29%
    14:00 +33°C° 0 mm 3 mps 748 mmHg 29%
    15:00 +30°C° 0 mm 3 mps 747 mmHg 33%
    16:00 +28°C° 0 mm 3 mps 747 mmHg 37%
    17:00 +27°C° 0 mm 3 mps 747 mmHg 40%
    18:00 +26°C° 0 mm 3 mps 748 mmHg 41%
    19:00 +25°C° 0 mm 2 mps 748 mmHg 42%
    20:00 +25°C° 0 mm 2 mps 748 mmHg 42%
    21:00 +25°C° 0 mm 2 mps 748 mmHg 42%
    22:00 +24°C° 0 mm 2 mps 748 mmHg 42%
    23:00 +24°C° 0 mm 3 mps 749 mmHg 42%

    Tomorrow, 20 November, Monday

    Time Temperature Precipitation Wind Pressure Humidity
    00:00 +22°C° 0 mm 3 mps 748 mmHg 42%
    01:00 +22°C° 0 mm 3 mps 748 mmHg 41%
    02:00 +21°C° 0 mm 3 mps 748 mmHg 41%
    03:00 +21°C° 0 mm 3 mps 748 mmHg 41%
    04:00 +21°C° 0 mm 3 mps 748 mmHg 41%
    05:00 +20°C° 0 mm 3 mps 748 mmHg 42%
    06:00 +21°C° 0 mm 4 mps 749 mmHg 40%
    07:00 +22°C° 0 mm 4 mps 750 mmHg 38%
    08:00 +23°C° 0 mm 4 mps 750 mmHg 36%
    09:00 +26°C° 0 mm 5 mps 750 mmHg 32%
    10:00 +28°C° 0 mm 5 mps 751 mmHg 29%
    11:00 +30°C° 0 mm 5 mps 751 mmHg 25%
    12:00 +30°C° 0 mm 5 mps 750 mmHg 24%
    13:00 +30°C° 0 mm 5 mps 749 mmHg 22%
    14:00 +30°C° 0 mm 5 mps 748 mmHg 21%
    15:00 +28°C° 0 mm 4 mps 748 mmHg 23%
    16:00 +27°C° 0 mm 4 mps 748 mmHg 24%
    17:00 +25°C° 0 mm 3 mps 748 mmHg 26%
    18:00 +24°C° 0 mm 3 mps 748 mmHg 26%
    19:00 +24°C° 0 mm 3 mps 748 mmHg 27%
    20:00 +22°C° 0 mm 3 mps 749 mmHg 27%
    21:00 +21°C° 0 mm 3 mps 749 mmHg 28%
    22:00 +20°C° 0 mm 3 mps 749 mmHg 28%
    23:00 +20°C° 0 mm 3 mps 749 mmHg 29%

    Day after tomorrow, 21 November, Tuesday

    Time Temperature Precipitation Wind Pressure Humidity
    00:00 +19°C° 0 mm 3 mps 748 mmHg 29%
    01:00 +19°C° 0 mm 3 mps 748 mmHg 29%
    02:00 +18°C° 0 mm 3 mps 748 mmHg 29%
    03:00 +18°C° 0 mm 3 mps 748 mmHg 29%
    04:00 +17°C° 0 mm 3 mps 748 mmHg 29%
    05:00 +17°C° 0 mm 3 mps 748 mmHg 29%
    06:00 +18°C° 0 mm 3 mps 748 mmHg 29%
    07:00 +19°C° 0 mm 3 mps 749 mmHg 28%
    08:00 +20°C° 0 mm 4 mps 750 mmHg 28%
    09:00 +22°C° 0 mm 4 mps 750 mmHg 25%
    10:00 +25°C° 0 mm 4 mps 750 mmHg 23%
    11:00 +27°C° 0 mm 4 mps 749 mmHg 20%
    12:00 +27°C° 0 mm 4 mps 749 mmHg 20%
    13:00 +28°C° 0 mm 4 mps 748 mmHg 19%
    14:00 +28°C° 0 mm 4 mps 747 mmHg 19%
    15:00 +26°C° 0 mm 4 mps 747 mmHg 21%
    16:00 +25°C° 0 mm 3 mps 747 mmHg 23%
    17:00 +23°C° 0 mm 2 mps 747 mmHg 26%
    18:00 +23°C° 0 mm 2 mps 747 mmHg 27%
    19:00 +21°C° 0 mm 2 mps 748 mmHg 27%
    20:00 +20°C° 0 mm 2 mps 748 mmHg 28%
    21:00 +20°C° 0 mm 2 mps 748 mmHg 28%
    22:00 +19°C° 0 mm 2 mps 748 mmHg 29%
    23:00 +19°C° 0 mm 3 mps 748 mmHg 29%

    22 November, Wednesday

    Time Temperature Precipitation Wind Pressure Humidity
    00:00 +18°C° 0 mm 2 mps 748 mmHg 30%
    01:00 +18°C° 0 mm 2 mps 747 mmHg 30%
    02:00 +17°C° 0 mm 2 mps 747 mmHg 31%
    03:00 +17°C° 0 mm 2 mps 747 mmHg 31%
    04:00 +17°C° 0 mm 2 mps 747 mmHg 31%
    05:00 +16°C° 0 mm 2 mps 747 mmHg 32%
    06:00 +17°C° 0 mm 2 mps 748 mmHg 31%
    07:00 +18°C° 0 mm 2 mps 748 mmHg 31%
    08:00 +19°C° 0 mm 2 mps 749 mmHg 31%
    09:00 +21°C° 0 mm 2 mps 749 mmHg 27%
    10:00 +24°C° 0 mm 3 mps 749 mmHg 24%
    11:00 +26°C° 0 mm 3 mps 749 mmHg 21%
    12:00 +27°C° 0 mm 3 mps 748 mmHg 20%
    13:00 +27°C° 0 mm 3 mps 748 mmHg 19%
    14:00 +28°C° 0 mm 4 mps 747 mmHg 18%
    15:00 +26°C° 0 mm 3 mps 747 mmHg 20%
    16:00 +25°C° 0 mm 3 mps 747 mmHg 23%
    17:00 +23°C° 0 mm 2 mps 746 mmHg 25%
    18:00 +21°C° 0 mm 2 mps 747 mmHg 26%
    19:00 +21°C° 0 mm 2 mps 747 mmHg 27%
    20:00 +20°C° 0 mm 2 mps 748 mmHg 28%
    21:00 +19°C° 0 mm 2 mps 748 mmHg 28%
    22:00 +19°C° 0 mm 2 mps 747 mmHg 29%
    23:00 +18°C° 0 mm 2 mps 747 mmHg 30%

    23 November, Thursday

    Time Temperature Precipitation Wind Pressure Humidity
    00:00 +18°C° 0 mm 2 mps 747 mmHg 31%
    01:00 +18°C° 0 mm 2 mps 747 mmHg 31%
    02:00 +17°C° 0 mm 2 mps 746 mmHg 32%
    03:00 +17°C° 0 mm 2 mps 747 mmHg 32%
    04:00 +16°C° 0 mm 2 mps 747 mmHg 32%
    05:00 +16°C° 0 mm 2 mps 747 mmHg 33%
    06:00 +17°C° 0 mm 2 mps 748 mmHg 32%
    07:00 +18°C° 0 mm 2 mps 748 mmHg 31%
    08:00 +19°C° 0 mm 2 mps 749 mmHg 31%
    09:00 +21°C° 0 mm 2 mps 749 mmHg 27%
    10:00 +24°C° 0 mm 2 mps 749 mmHg 22%
    11:00 +26°C° 0 mm 3 mps 749 mmHg 18%
    12:00 +26°C° 0 mm 3 mps 748 mmHg 17%
    13:00 +27°C° 0 mm 3 mps 748 mmHg 16%
    14:00 +28°C° 0 mm 3 mps 747 mmHg 14%
    15:00 +26°C° 0 mm 2 mps 747 mmHg 17%
    16:00 +24°C° 0 mm 2 mps 747 mmHg 19%
    17:00 +23°C° 0 mm 2 mps 747 mmHg 21%
    18:00 +21°C° 0 mm 2 mps 747 mmHg 21%
    19:00 +21°C° 0 mm 1 mps 747 mmHg 22%
    20:00 +21°C° 0 mm 1 mps 748 mmHg 22%
    21:00 +20°C° 0 mm 1 mps 748 mmHg 23%
    22:00 +20°C° 0 mm 1 mps 748 mmHg 24%
    23:00 +18°C° 0 mm 2 mps 748 mmHg 24%

    24 November, Friday

    Time Temperature Precipitation Wind Pressure Humidity
    00:00 +19°C° 0 mm 1 mps 747 mmHg 25%
    01:00 +18°C° 0 mm 1 mps 747 mmHg 25%
    02:00 +18°C° 0 mm 1 mps 747 mmHg 26%
    03:00 +18°C° 0 mm 1 mps 747 mmHg 26%
    04:00 +16°C° 0 mm 1 mps 747 mmHg 27%
    05:00 +16°C° 0 mm 1 mps 747 mmHg 27%
    06:00 +18°C° 0 mm 1 mps 748 mmHg 27%
    07:00 +19°C° 0 mm 1 mps 749 mmHg 27%
    08:00 +20°C° 0 mm 1 mps 749 mmHg 27%
    09:00 +21°C° 0 mm 2 mps 749 mmHg 24%
    10:00 +24°C° 0 mm 2 mps 749 mmHg 20%
    11:00 +26°C° 0 mm 2 mps 749 mmHg 17%
    12:00 +26°C° 0 mm 3 mps 748 mmHg 16%
    13:00 +27°C° 0 mm 3 mps 748 mmHg 15%
    14:00 +28°C° 0 mm 3 mps 747 mmHg 14%
    15:00 +26°C° 0 mm 3 mps 747 mmHg 16%
    16:00 +24°C° 0 mm 2 mps 747 mmHg 18%
    17:00 +23°C° 0 mm 2 mps 747 mmHg 20%
    18:00 +21°C° 0 mm 2 mps 747 mmHg 21%
    19:00 +21°C° 0 mm 1 mps 748 mmHg 21%
    20:00 +21°C° 0 mm 1 mps 748 mmHg 22%
    21:00 +20°C° 0 mm 1 mps 748 mmHg 22%
    22:00 +20°C° 0 mm 1 mps 748 mmHg 23%
    23:00 +19°C° 0 mm 1 mps 748 mmHg 23%
    Show more